This is the latest recevied weather packets stored in our database for station/object W3EJE-13. If no packets are shown the sender has not sent any weather packets the latest 10 day(s).
| Time | Temp. | Humidity | Pressure | Rain* | Wind** | Luminosity | Snow |
|---|---|---|---|---|---|---|---|
| 1777835145 | 11.67° C | 50% | 1016.8 hPa | 0 mm | - | 220 W/m² | - |
| 1777834843 | 11.67° C | 51% | 1016.6 hPa | 0 mm | - | 705 W/m² | - |
| 1777834539 | 11.67° C | 51% | 1016.7 hPa | 0 mm | - | 715 W/m² | - |
| 1777834238 | 10.56° C | 53% | 1016.9 hPa | 0 mm | - | 760 W/m² | - |
| 1777833935 | 10.56° C | 53% | 1017 hPa | 0 mm | - | 825 W/m² | - |
| 1777833632 | 11.67° C | 52% | 1017 hPa | 0 mm | - | 181 W/m² | - |
| 1777833328 | 11.11° C | 54% | 1017.1 hPa | 0 mm | - | 718 W/m² | - |
| 1777833025 | 10.56° C | 52% | 1017.1 hPa | 0 mm | - | 515 W/m² | - |
| 1777832724 | 11.11° C | 52% | 1017.2 hPa | 0 mm | - | 262 W/m² | - |
| 1777832421 | 11.11° C | 54% | 1017.1 hPa | 0 mm | - | 747 W/m² | - |
| 1777832118 | 10.56° C | 53% | 1017.1 hPa | 0 mm | - | 772 W/m² | - |
| 1777831814 | 10° C | 53% | 1017.2 hPa | 0 mm | - | 239 W/m² | - |
| 1777831512 | 10.56° C | 53% | 1017.2 hPa | 0 mm | - | 226 W/m² | - |
| 1777831209 | 10° C | 52% | 1017.4 hPa | 0 mm | - | 763 W/m² | - |
| 1777830907 | 10.56° C | 53% | 1017.4 hPa | 0 mm | - | 739 W/m² | - |
| 1777830603 | 10.56° C | 54% | 1017.1 hPa | 0 mm | - | 786 W/m² | - |
| 1777830301 | 10° C | 51% | 1017.1 hPa | 0 mm | - | 823 W/m² | - |
| 1777829996 | 9.44° C | 50% | 1017.4 hPa | 0 mm | - | 767 W/m² | - |
| 1777829692 | 10° C | 55% | 1017.7 hPa | 0 mm | - | 134 W/m² | - |
| 1777829389 | 10° C | 52% | 1017.6 hPa | 0 mm | - | 781 W/m² | - |
| 1777829086 | 10° C | 52% | 1017.7 hPa | 0 mm | - | 759 W/m² | - |
| 1777828783 | 10° C | 56% | 1017.7 hPa | 0 mm | - | 762 W/m² | - |
| 1777828479 | 9.44° C | 58% | 1017.7 hPa | 0 mm | - | 278 W/m² | - |
| 1777828177 | 9.44° C | 56% | 1017.6 hPa | 0 mm | - | 616 W/m² | - |
| 1777827873 | 9.44° C | 56% | 1017.6 hPa | 0 mm | - | 746 W/m² | - |
* Rain latest hour (hover to see other rain measurements)
** Current wind speed in m/s (hover to see current wind gust speed)